Weather History for Buffalo, WY

Change the Weather History Date:

Sunday, March 17, 2013

  Actual Average Record
Temperature  
Mean Temperature 35 °F 35 °F  
Max Temperature 48 °F 46 °F 69 °F (1974)
Min Temperature 21 °F 23 °F 14 °F (2002)
Degree Days  
Heating Degree Days 30 30  
Month to date heating degree days 484 553  
Since 1 July heating degree days 5433 5793  
Cooling Degree Days 0 0  
Month to date cooling degree days 0 0  
Year to date cooling degree days 0 0  
Moisture  
Dew Point 23 °F    
Average Humidity 66    
Maximum Humidity 88    
Minimum Humidity 43    
Precipitation  
Precipitation T in 0.04 in 0.12 in (2014)
Month to date precipitation 0.07 0.40  
Year to date precipitation 0.68 1.17  
Sea Level Pressure  
Sea Level Pressure 29.58 in    
Wind  
Wind Speed 20 mph (NNW)    
Max Wind Speed 43 mph    
Max Gust Speed 54 mph    
Visibility 8 miles    
Events Snow    
T = Trace of Precipitation, MM = Missing Value Source: NWS Daily Summary

Daily Weather History Graph

Daily Weather History Graph

Search for Another Location

Airport:

Trip Planner

Search our weather history database for the weather conditions in past years. The results will help you decide how hot, cold, wet, or windy it might be!

Date:

Astronomy

Mar. 17, 2013 Rise Set
Actual Time 7:14 AM MDT 7:15 PM MDT
Civil Twilight 6:46 AM MDT 7:44 PM MDT
Nautical Twilight 6:12 AM MDT 8:18 PM MDT
Astronomical Twilight 5:37 AM MDT 8:53 PM MDT
Moon 10:17 AM MDT (3/17) 12:38 AM MDT (3/17)
Length of Visible Light 12h 58m
Length of Day
12h 00m
Waxing Crescent, 32% of the Moon is Illuminated
Mar 17
Waxing Crescent
Mar 19
First Quarter
Mar 27
Full
Apr 2
Last Quarter
Apr 10
New

Hourly Weather History & Observations

Time (MDT) Temp. Windchill Dew Point Humidity Pressure Visibility Wind Dir Wind Speed Gust Speed Precip Events Conditions
12:53 AM 32.0 °F 20.5 °F 27.0 °F 82% 29.68 in 10.0 mi SSE 18.4 mph - N/A   Clear
1:53 AM 34.0 °F 22.7 °F 27.0 °F 75% 29.62 in 10.0 mi South 19.6 mph 25.3 mph N/A   Clear
2:53 AM 33.1 °F 21.5 °F 27.0 °F 78% 29.57 in 10.0 mi South 19.6 mph - N/A   Clear
3:53 AM 30.9 °F 19.4 °F 26.1 °F 82% 29.54 in 10.0 mi SE 17.3 mph - N/A   Clear
4:53 AM 30.9 °F 20.2 °F 27.0 °F 85% 29.49 in 10.0 mi SSE 15.0 mph - N/A   Clear
5:53 AM 30.0 °F 20.5 °F 26.1 °F 85% 29.46 in 10.0 mi South 11.5 mph 24.2 mph N/A   Clear
6:53 AM 28.9 °F 21.1 °F 25.0 °F 85% 29.44 in 10.0 mi SSE 8.1 mph - N/A   Clear
7:53 AM 37.9 °F - 21.9 °F 53% 29.39 in 10.0 mi Calm Calm - N/A   Clear
8:53 AM 35.1 °F 29.3 °F 23.0 °F 61% 29.37 in 10.0 mi East 6.9 mph - N/A   Clear
9:53 AM 43.0 °F 32.5 °F 25.0 °F 49% 29.37 in 10.0 mi North 29.9 mph 36.8 mph N/A   Scattered Clouds
10:33 AM 35.6 °F 22.5 °F 28.4 °F 75% 29.40 in 10.0 mi NNW 29.9 mph 46.0 mph N/A   Mostly Cloudy
10:53 AM 36.0 °F 22.0 °F 28.9 °F 76% 29.42 in 10.0 mi NNW 35.7 mph 50.6 mph N/A   Overcast
11:15 AM 35.6 °F 21.1 °F 28.4 °F 75% 29.41 in 10.0 mi NNW 38.0 mph 51.8 mph N/A   Scattered Clouds
11:53 AM 36.0 °F 22.6 °F 27.0 °F 70% 29.46 in 10.0 mi NNW 32.2 mph 42.6 mph 0.00 in   Mostly Cloudy
11:59 AM 33.8 °F 20.5 °F 28.4 °F 81% 29.45 in 1.8 mi NNW 27.6 mph 47.2 mph 0.00 in Snow Light Snow
12:06 PM 35.6 °F 22.5 °F 30.2 °F 81% 29.45 in 0.8 mi NNW 29.9 mph 42.6 mph 0.00 in Snow Light Snow
12:13 PM 33.8 °F 19.9 °F 28.4 °F 81% 29.45 in 1.0 mi NNW 31.1 mph 41.4 mph 0.00 in Snow Light Snow
12:20 PM 33.8 °F 19.6 °F 26.6 °F 75% 29.45 in 1.5 mi NW 32.2 mph 43.7 mph 0.00 in Snow Light Snow
12:29 PM 33.8 °F 19.6 °F 26.6 °F 75% 29.45 in 2.5 mi NNW 32.2 mph 43.7 mph 0.00 in Snow Light Snow
12:39 PM 35.6 °F 21.9 °F 26.6 °F 70% 29.45 in 5.0 mi NNW 33.4 mph 47.2 mph 0.00 in Snow Light Snow
12:53 PM 34.0 °F 20.3 °F 27.0 °F 75% 29.50 in 9.0 mi NNW 29.9 mph 41.4 mph 0.00 in   Overcast
1:53 PM 35.1 °F 21.4 °F 23.0 °F 61% 29.52 in 8.0 mi NNW 32.2 mph 41.4 mph 0.00 in Snow Light Snow
2:02 PM 35.6 °F 21.1 °F 23.0 °F 60% 29.49 in 10.0 mi NNW 38.0 mph 48.3 mph N/A   Overcast
2:12 PM 33.8 °F 18.8 °F 24.8 °F 70% 29.49 in 10.0 mi NNW 36.8 mph 51.8 mph N/A   Overcast
2:36 PM 33.8 °F 19.2 °F 19.4 °F 56% 29.50 in 10.0 mi NNW 34.5 mph 49.5 mph N/A   Overcast
2:53 PM 30.9 °F 14.9 °F 21.9 °F 69% 29.56 in 10.0 mi NNW 36.8 mph 48.3 mph N/A   Overcast
3:53 PM 30.0 °F 14.5 °F 18.0 °F 61% 29.61 in 10.0 mi NNW 32.2 mph 52.9 mph N/A   Overcast
4:53 PM 30.9 °F 15.5 °F 16.0 °F 54% 29.63 in 10.0 mi NNW 33.4 mph 52.9 mph N/A   Scattered Clouds
5:53 PM 32.0 °F 18.6 °F 12.0 °F 44% 29.66 in 10.0 mi NNW 25.3 mph 40.3 mph N/A   Clear
6:53 PM 30.9 °F 18.7 °F 12.9 °F 47% 29.72 in 10.0 mi North 19.6 mph 36.8 mph N/A   Clear
7:53 PM 30.9 °F 20.2 °F 10.9 °F 43% 29.73 in 10.0 mi NNW 15.0 mph 27.6 mph N/A   Partly Cloudy
8:41 PM 26.6 °F 13.4 °F 21.2 °F 80% 29.74 in 2.5 mi North 18.4 mph 33.4 mph 0.00 in Snow Light Snow
8:46 PM 26.6 °F 14.3 °F 21.2 °F 80% 29.74 in 1.5 mi North 16.1 mph 23.0 mph 0.00 in Snow Light Snow
8:51 PM 26.6 °F 15.7 °F 21.2 °F 80% 29.74 in 2.5 mi North 12.7 mph 23.0 mph 0.00 in Snow Light Snow
8:53 PM 26.1 °F 12.7 °F 21.9 °F 84% 29.80 in 3.0 mi North 18.4 mph 23.0 mph 0.00 in Snow Light Snow
9:05 PM 24.8 °F 11.9 °F 21.2 °F 86% 29.75 in 9.0 mi North 16.1 mph 23.0 mph 0.00 in   Overcast
9:28 PM 24.8 °F 10.7 °F 21.2 °F 86% 29.76 in 10.0 mi NNW 19.6 mph 26.5 mph 0.00 in   Scattered Clouds
9:53 PM 24.1 °F 12.5 °F 21.0 °F 88% 29.81 in 10.0 mi North 12.7 mph 23.0 mph 0.00 in   Mostly Cloudy
10:08 PM 24.8 °F 14.0 °F 21.2 °F 86% 29.77 in 10.0 mi NNW 11.5 mph 24.2 mph N/A   Mostly Cloudy
10:25 PM 23.0 °F 11.7 °F 21.2 °F 93% 29.78 in 10.0 mi NNW 11.5 mph - N/A   Mostly Cloudy
10:53 PM 23.0 °F 13.9 °F 19.9 °F 88% 29.86 in 10.0 mi NNW 8.1 mph - N/A   Overcast
11:35 PM 23.0 °F 18.4 °F 19.4 °F 86% 29.79 in 10.0 mi West 3.5 mph - N/A   Overcast
11:53 PM 23.0 °F - 19.9 °F 88% 29.86 in 10.0 mi Calm Calm - N/A   Overcast